Flag for Germany Weather past 2 weeks in Karlsruhe, Baden-Württemberg, Germany

Now
64 °F

Rain. Broken clouds.


Feels Like: 64 °F
Forecast: 57 / 79 °F
Wind: 6 mph from South

Location: Karlsruhe - Baden Wurttemberg

Current Time: Jul 30, 2014 at 11:13:26 AM

Latest Report: Jul 30, 2014 at 10:50 AM


Visibility: 4 mi

Pressure: 29.83 "Hg

Humidity: 88%

Dew point: 61 °F

Location of KarlsruheLocation

Historic Weather in Karlsruhe — Graph

°F

Karlsruhe temperature yesterday

Maximum temperature yesterday: 68 °F (at 4:50 PM)
Minimum temperature yesterday: 61 °F (at 4:50 AM)
Average temperature yesterday: 64 °F

Past Weeks' High & Low Weather Summary

 TemperatureHumidityPressure
High93 °F (Jul 19, 5:20 PM)94% (Jul 16, 5:20 AM)30.18 "Hg (Jul 16, 5:20 AM)
Low57 °F (Jul 16, 5:50 AM)24% (Jul 18, 4:20 PM)29.77 "Hg (Jul 28, 5:20 PM)
Average72 °F66%29.95 "Hg
* Reported Jul 15 9:20 AM — Jul 30 9:50 AM, Karlsruhe, Weather by CustomWeather, © 2014

Note: Actual official high and low records may vary slightly from our data, if they occured in-between our weather recording intervals... More about our weather records

Advertising

Karlsruhe weather history for previous 24 hours

 ConditionsComfort  
Time TempWeatherWind HumidityBarometerVisibility
9:50 AM
Jul 30
63 °FRain. Partly sunny.8 mph94%29.83 "Hg4 mi
9:20 AM63 °FDrizzle. More clouds than sun.7 mph94%29.80 "Hg4 mi
8:50 AM63 °FDrizzle. Low clouds.8 mph94%29.80 "Hg4 mi
8:20 AM63 °FSprinkles. Broken clouds.8 mph94%29.80 "Hg4 mi
7:50 AM63 °FLight rain. Broken clouds.9 mph94%29.80 "Hg4 mi
7:20 AM63 °FScattered showers. Broken clouds.9 mph94%29.80 "Hg4 mi
6:50 AM63 °FLight rain. Partly cloudy.7 mph94%29.80 "Hg4 mi
6:20 AM63 °FLight rain. Fog.7 mph94%29.80 "Hg3 mi
5:50 AM63 °FRain. Fog.9 mph94%29.77 "Hg3 mi
5:20 AM63 °FRain. Mostly cloudy.7 mph94%29.77 "Hg5 mi
4:50 AM63 °FMostly cloudy.8 mph94%29.77 "Hg6 mi
11:20 PM
Jul 29
64 °FOvercast.10 mph88%29.80 "HgN/A
10:50 PM64 °FMostly cloudy.7 mph88%29.80 "HgN/A
10:20 PM64 °FMild.8 mph88%29.80 "HgN/A
9:50 PM64 °FOvercast.9 mph88%29.80 "HgN/A
9:20 PM64 °FPartly sunny.10 mph88%29.80 "HgN/A
8:50 PM66 °FPartly sunny.9 mph83%29.80 "HgN/A
8:20 PM66 °FPartly sunny.8 mph83%29.77 "HgN/A
7:50 PM66 °FLow clouds.12 mph78%29.77 "HgN/A
7:20 PM66 °FPartly sunny.13 mph78%29.77 "HgN/A
6:50 PM66 °FOvercast.14 mph83%29.77 "HgN/A
6:20 PM66 °FOvercast.10 mph83%29.80 "HgN/A
5:50 PM66 °FOvercast.12 mph83%29.77 "HgN/A
5:20 PM66 °FPartly sunny.9 mph83%29.80 "HgN/A
4:50 PM68 °FOvercast.9 mph78%29.77 "HgN/A
4:20 PM66 °FOvercast.8 mph83%29.77 "HgN/A
3:50 PM66 °FScattered showers. Partly sunny.8 mph83%29.80 "HgN/A
3:20 PM66 °FScattered showers. Partly sunny.7 mph83%29.80 "HgN/A
2:50 PM66 °FScattered showers. Partly sunny.6 mph78%29.80 "HgN/A
2:20 PM64 °FBroken clouds.7 mph83%29.80 "HgN/A
1:50 PM64 °FOvercast.6 mph83%29.80 "HgN/A
1:20 PM63 °FScattered showers. Broken clouds.8 mph88%29.80 "HgN/A
12:50 PM63 °FScattered showers. Partly sunny.8 mph88%29.80 "Hg4 mi
12:20 PM64 °FPartly sunny.6 mph83%29.80 "Hg6 mi
11:50 AM64 °FPartly sunny.6 mph83%29.80 "HgN/A
11:20 AM63 °FPartly sunny.6 mph88%29.80 "HgN/A
Weather by CustomWeather, © 2014

See weather overviewHow to use our weather pages